Weather in Step

Russia / Zabaykalsky Krai     51°00′15″N   115°23′40″E
temp.,
°C
wind,
m/s
gust,
m/s
humid.,
%
clouds,
%
prec.,
mm/h
press.,
hPa
HPBL,
m
27 january, thu
thu2700:00−27nw0010054 0.0 10389
03:00−28nw0010045 0.0 10399
06:00−29w0010043 0.0 10399
09:00−30nw0010058 0.0 10399
12:00−22nnw119551 0.0 103785
15:00−18nnw128633 0.0 1035218
18:00−24ne11985 0.0 10379
21:00−27nw1110020 0.0 10389
28 january, fri
fri2800:00−28nw1110044 0.0 10399
03:00−29nw1110053 0.0 10399
06:00−30nw1110059 0.0 10399
09:00−31n1110069 0.0 10409
12:00−23n229343 0.0 1038102
15:00−18nnw23835 0.0 1035198
18:00−24n11975 0.0 10369
21:00−27w11995 0.0 10379
29 january, sat
sat2900:00−28w111007 0.0 10379
03:00−29w1110025 0.0 10369
06:00−30nw1110042 0.0 10359
09:00−30n1110056 0.0 10369
12:00−22n229227 0.0 103399
15:00−18n23834 0.0 1030175
18:00−24n11965 0.0 10329
21:00−27nw11995 0.0 10339
30 january, sun
sun3000:00−28nw119923 0.0 10349
03:00−29n1110044 0.0 10359
06:00−31nne1110061 0.0 10369
09:00−32nne2210067 0.0 103811
12:00−22n229341 0.0 1035100
15:00−18n23835 0.0 1033199
18:00−24n11965 0.0 10359
21:00−27nw11995 0.0 10379
31 january, mon
mon3100:00−29nw1110037 0.0 10379
03:00−30n1110045 0.0 10389
06:00−31n1110067 0.0 10389
09:00−32nne1110065 0.0 10399
12:00−23n229455 0.0 1036104
15:00−19n23845 0.0 1033203
18:00−25nne11965 0.0 10359
21:00−28n111005 0.0 10379